| time (UTC) | temp F | wind direction | speed knots | gust knots | rain 1hr in | rain 24hr in | rain mn in | humidity % | barometer mb |
| 20260506223521 | 33 | 321 | 2.6 | 4.3 | 0.00 | 0.02 | 0.00 | 71 | 1018.0 |
| 20260506222530 | 34 | 323 | 1.7 | 3.5 | 0.00 | 0.02 | 0.00 | 67 | 1018.0 |
| 20260506221530 | 32 | 249 | 0.9 | 3.5 | 0.00 | 0.02 | 0.00 | 69 | 1018.1 |
| 20260506220530 | 33 | 306 | 1.7 | 2.6 | 0.00 | 0.02 | 0.00 | 71 | 1018.0 |
| 20260506215530 | 31 | 13 | 1.7 | 3.5 | 0.00 | 0.02 | 0.00 | 77 | 1018.1 |
| 20260506214531 | 31 | 349 | 1.7 | 3.5 | 0.00 | 0.03 | 0.00 | 80 | 1018.0 |
| 20260506213531 | 31 | 12 | 1.7 | 2.6 | 0.00 | 0.03 | 0.00 | 79 | 1017.9 |
| 20260506212531 | 30 | 345 | 1.7 | 2.6 | 0.00 | 0.03 | 0.00 | 84 | 1018.0 |
| 20260506211531 | 30 | 352 | 1.7 | 3.5 | 0.00 | 0.03 | 0.00 | 86 | 1018.1 |
| 20260506210551 | 29 | 359 | 2.6 | 3.5 | 0.00 | 0.03 | 0.00 | 88 | 1018.1 |
| 20260506205523 | 28 | 332 | 2.6 | 5.2 | 0.00 | 0.03 | 0.00 | 86 | 1018.3 |
| 20260506204523 | 29 | 329 | 3.5 | 5.2 | 0.00 | 0.03 | 0.00 | 88 | 1018.2 |
| 20260506203603 | 29 | 341 | 4.3 | 7.0 | 0.00 | 0.03 | 0.00 | 88 | 1018.1 |
| 20260506202517 | 30 | 339 | 4.3 | 6.1 | 0.00 | 0.03 | 0.00 | 88 | 1017.9 |
| 20260506201517 | 32 | 355 | 2.6 | 4.3 | 0.00 | 0.03 | 0.00 | 90 | 1017.7 |
| 20260506200538 | 31 | 332 | 3.5 | 5.2 | 0.00 | 0.03 | 0.00 | 89 | 1017.6 |
| 20260506195533 | 31 | 320 | 2.6 | 3.5 | 0.00 | 0.03 | 0.00 | 90 | 1017.5 |
| 20260506194533 | 31 | 278 | 1.7 | 3.5 | 0.00 | 0.03 | 0.00 | 93 | 1017.5 |
| 20260506193518 | 30 | 320 | 3.5 | 6.1 | 0.00 | 0.03 | 0.00 | 93 | 1017.7 |
| 20260506192518 | 29 | 320 | 4.3 | 6.1 | 0.00 | 0.03 | 0.00 | 94 | 1017.7 |
| 20260506191538 | 28 | 341 | 4.3 | 7.8 | 0.00 | 0.03 | 0.00 | 93 | 1017.8 |
| 20260506190518 | 26 | 350 | 7.8 | 10.4 | 0.00 | 0.03 | 0.00 | 93 | 1017.8 |
| 20260506185517 | 26 | 349 | 7.8 | 10.4 | 0.00 | 0.03 | 0.00 | 93 | 1017.8 |
| 20260506184517 | 26 | 346 | 7.0 | 11.3 | 0.00 | 0.03 | 0.00 | 93 | 1017.8 |
| 20260506183519 | 25 | 319 | 4.3 | 7.0 | 0.00 | 0.03 | 0.00 | 93 | 1017.6 |
| 20260506182520 | 25 | 329 | 2.6 | 4.3 | 0.00 | 0.03 | 0.00 | 93 | 1017.6 |
| 20260506181534 | 24 | 319 | 2.6 | 5.2 | 0.00 | 0.03 | 0.00 | 92 | 1017.6 |
| 20260506180538 | 24 | 354 | 3.5 | 7.0 | 0.00 | 0.03 | 0.00 | 92 | 1017.8 |
| 20260506175518 | 24 | 24 | 3.5 | 6.1 | 0.00 | 0.03 | 0.00 | 92 | 1017.8 |
| 20260506174517 | 24 | 44 | 7.0 | 9.6 | 0.00 | 0.03 | 0.00 | 92 | 1017.7 |
| 20260506173558 | 25 | 45 | 9.6 | 13.0 | 0.00 | 0.03 | 0.00 | 91 | 1017.4 |
| 20260506172517 | 27 | 348 | 7.0 | 10.4 | 0.00 | 0.03 | 0.00 | 92 | 1017.4 |
| 20260506171518 | 27 | 308 | 3.5 | 6.1 | 0.00 | 0.03 | 0.00 | 92 | 1017.2 |
| 20260506170519 | 27 | 285 | 2.6 | 3.5 | 0.00 | 0.03 | 0.00 | 92 | 1016.9 |
| 20260506165519 | 27 | 229 | 4.3 | 7.0 | 0.00 | 0.03 | 0.00 | 91 | 1016.3 |
| 20260506164518 | 27 | 217 | 7.0 | 9.6 | 0.00 | 0.03 | 0.00 | 91 | 1015.7 |
| 20260506163518 | 28 | 213 | 8.7 | 11.3 | 0.00 | 0.03 | 0.00 | 91 | 1015.3 |
| 20260506162518 | 28 | 204 | 8.7 | 11.3 | 0.00 | 0.03 | 0.00 | 91 | 1015.3 |
| 20260506161519 | 28 | 198 | 7.8 | 12.2 | 0.00 | 0.03 | 0.00 | 92 | 1015.2 |
| 20260506160518 | 28 | 205 | 7.8 | 9.6 | 0.00 | 0.03 | 0.00 | 92 | 1015.3 |
| 20260506155519 | 27 | 204 | 7.0 | 11.3 | 0.00 | 0.03 | 0.00 | 92 | 1015.3 |
| 20260506154539 | 27 | 196 | 7.8 | 10.4 | 0.00 | 0.03 | 0.00 | 92 | 1015.3 |
| 20260506153519 | 28 | 202 | 7.8 | 9.6 | 0.00 | 0.03 | 0.00 | 92 | 1015.2 |
| 20260506152519 | 27 | 195 | 7.0 | 9.6 | 0.00 | 0.03 | 0.00 | 92 | 1015.2 |
| 20260506151537 | 27 | 198 | 7.8 | 13.0 | 0.00 | 0.03 | 0.00 | 92 | 1015.1 |
| 20260506150521 | 26 | 196 | 7.0 | 7.8 | 0.00 | 0.03 | 0.00 | 92 | 1015.2 |
| 20260506145522 | 26 | 203 | 7.0 | 8.7 | 0.00 | 0.03 | 0.00 | 92 | 1015.3 |
| 20260506144521 | 26 | 196 | 6.1 | 7.8 | 0.00 | 0.03 | 0.00 | 92 | 1015.5 |
| 20260506143522 | 26 | 192 | 4.3 | 5.2 | 0.00 | 0.03 | 0.00 | 91 | 1015.7 |
| 20260506142522 | 25 | 144 | 4.3 | 4.3 | 0.00 | 0.03 | 0.00 | 91 | 1015.6 |
| 20260506094622 | 28 | 207 | 4.3 | 4.3 | 0.00 | 0.03 | 0.00 | 92 | 1013.5 |
| 20260506093603 | 28 | 207 | 5.2 | 6.1 | 0.00 | 0.03 | 0.00 | 92 | 1013.5 |
| 20260506092602 | 28 | 204 | 4.3 | 5.2 | 0.00 | 0.03 | 0.00 | 92 | 1013.5 |
| 20260506091603 | 28 | 215 | 3.5 | 4.3 | 0.00 | 0.03 | 0.00 | 92 | 1013.4 |
| 20260506090603 | 28 | 198 | 2.6 | 2.6 | 0.00 | 0.03 | 0.00 | 92 | 1013.5 |
| 20260506085604 | 28 | 188 | 1.7 | 1.7 | 0.00 | 0.03 | 0.00 | 92 | 1013.5 |
| 20260506084604 | 28 | 187 | 0.9 | 0.9 | 0.00 | 0.03 | 0.00 | 92 | 1013.5 |
| 20260506083624 | 28 | 206 | 1.7 | 2.6 | 0.00 | 0.03 | 0.00 | 92 | 1013.5 |
| 20260506082604 | 29 | 211 | 1.7 | 2.6 | 0.00 | 0.03 | 0.00 | 92 | 1013.4 |
| 20260506081604 | 29 | 221 | 2.6 | 3.5 | 0.00 | 0.03 | 0.00 | 92 | 1013.3 |
| 20260506080604 | 30 | 218 | 2.6 | 3.5 | 0.00 | 0.03 | 0.00 | 92 | 1013.6 |
| 20260506073522 | 30 | 255 | 1.7 | 2.6 | 0.00 | 0.03 | 0.00 | 92 | 1013.7 |
| 20260506072542 | 30 | 284 | 1.7 | 3.5 | 0.00 | 0.03 | 0.00 | 92 | 1013.9 |
| 20260506071522 | 30 | 283 | 1.7 | 2.6 | 0.00 | 0.03 | 0.00 | 92 | 1013.8 |
| 20260506070523 | 30 | 298 | 1.7 | 2.6 | 0.00 | 0.03 | 0.00 | 92 | 1013.9 |
| 20260506061520 | 30 | 347 | 3.5 | 5.2 | 0.00 | 0.03 | 0.00 | 92 | 1013.8 |
| 20260506060520 | 30 | 346 | 4.3 | 7.0 | 0.00 | 0.03 | 0.00 | 92 | 1013.6 |
| 20260506050521 | 31 | 348 | 4.3 | 7.0 | 0.00 | 0.03 | 0.03 | 92 | 1013.4 |
| 20260506044545 | 31 | 353 | 2.6 | 4.3 | 0.00 | 0.03 | 0.03 | 92 | 1013.3 |
| 20260506043522 | 32 | 6 | 3.5 | 7.0 | 0.00 | 0.03 | 0.03 | 91 | 1013.3 |
| 20260506042522 | 32 | 227 | 3.5 | 6.1 | 0.00 | 0.03 | 0.03 | 91 | 1013.2 |
| 20260506041519 | 32 | 203 | 6.1 | 9.6 | 0.00 | 0.03 | 0.03 | 91 | 1012.8 |
| 20260506040523 | 32 | 214 | 6.1 | 8.7 | 0.00 | 0.03 | 0.03 | 92 | 1012.9 |
| 20260506035518 | 32 | 201 | 7.8 | 10.4 | 0.00 | 0.03 | 0.03 | 91 | 1012.7 |
| 20260506034517 | 33 | 191 | 8.7 | 11.3 | 0.00 | 0.03 | 0.03 | 91 | 1012.7 |
| 20260506033517 | 34 | 203 | 7.0 | 8.7 | 0.00 | 0.03 | 0.03 | 90 | 1012.8 |
| 20260506032601 | 34 | 193 | 7.8 | 11.3 | 0.00 | 0.03 | 0.03 | 89 | 1012.6 |
| 20260506031521 | 33 | 204 | 6.1 | 8.7 | 0.00 | 0.03 | 0.03 | 90 | 1012.7 |
| 20260506030537 | 33 | 191 | 8.7 | 12.2 | 0.00 | 0.03 | 0.03 | 90 | 1012.7 |
| 20260506025517 | 33 | 213 | 8.7 | 13.0 | 0.00 | 0.04 | 0.03 | 90 | 1011.9 |
| 20260506024518 | 33 | 210 | 8.7 | 12.2 | 0.00 | 0.04 | 0.03 | 90 | 1011.7 |
| 20260506023518 | 33 | 196 | 10.4 | 15.6 | 0.00 | 0.04 | 0.03 | 91 | 1011.4 |
| 20260506022518 | 33 | 189 | 10.4 | 15.6 | 0.00 | 0.04 | 0.03 | 91 | 1011.2 |
| 20260506021518 | 33 | 188 | 10.4 | 13.9 | 0.00 | 0.04 | 0.03 | 91 | 1011.5 |
| 20260506020519 | 33 | 183 | 11.3 | 13.9 | 0.00 | 0.04 | 0.03 | 91 | 1011.7 |
| 20260506015519 | 33 | 179 | 10.4 | 13.9 | 0.00 | 0.04 | 0.03 | 91 | 1011.9 |
| 20260506014519 | 33 | 185 | 9.6 | 13.9 | 0.00 | 0.04 | 0.03 | 90 | 1011.5 |
| 20260506013519 | 34 | 209 | 7.0 | 10.4 | 0.00 | 0.04 | 0.03 | 90 | 1011.6 |
| 20260506012519 | 34 | 206 | 7.8 | 12.2 | 0.00 | 0.04 | 0.03 | 90 | 1011.5 |
| 20260506011540 | 34 | 211 | 7.8 | 11.3 | 0.00 | 0.04 | 0.03 | 90 | 1011.1 |
| 20260506010520 | 34 | 206 | 9.6 | 13.0 | 0.00 | 0.04 | 0.03 | 91 | 1010.8 |
| 20260506005540 | 34 | 203 | 9.6 | 13.0 | 0.00 | 0.04 | 0.03 | 90 | 1010.9 |
| 20260506004517 | 34 | 191 | 7.0 | 9.6 | 0.00 | 0.04 | 0.03 | 90 | 1011.0 |
| 20260506003517 | 34 | 191 | 7.0 | 10.4 | 0.00 | 0.04 | 0.03 | 91 | 1011.1 |
| 20260506002520 | 34 | 179 | 6.1 | 8.7 | 0.00 | 0.04 | 0.03 | 91 | 1011.1 |
| 20260506001541 | 34 | 192 | 4.3 | 6.1 | 0.00 | 0.04 | 0.03 | 91 | 1011.3 |
| 20260506000530 | 34 | 232 | 1.7 | 2.6 | 0.00 | 0.04 | 0.03 | 90 | 1011.5 |
| 20260505235530 | 34 | 208 | 0.0 | 0.9 | 0.00 | 0.04 | 0.03 | 90 | 1011.4 |
| 20260505234530 | 34 | 13 | 0.0 | 0.9 | 0.02 | 0.04 | 0.03 | 90 | 1011.3 |
| 20260505233530 | 34 | 360 | 1.7 | 1.7 | 0.02 | 0.04 | 0.03 | 90 | 1011.4 |
| 20260505232531 | 34 | 352 | 1.7 | 2.6 | 0.02 | 0.04 | 0.03 | 91 | 1011.4 |
| 20260505231551 | 33 | 17 | 1.7 | 2.6 | 0.02 | 0.04 | 0.03 | 92 | 1011.3 |
| 20260505230522 | 32 | 358 | 3.5 | 4.3 | 0.02 | 0.04 | 0.03 | 92 | 1011.4 |
| 20260505225522 | 32 | 350 | 5.2 | 7.8 | 0.02 | 0.04 | 0.03 | 91 | 1011.3 |
| 20260505224543 | 32 | 337 | 4.3 | 6.1 | 0.01 | 0.02 | 0.02 | 91 | 1011.3 |